| time (UTC) | temp C | wind direction | speed KPH | gust KPH | rain 1hr cm | rain 24hr cm | rain mn cm | humidity % | barometer mb |
| 20260505040050 | 25 | 256 | 0.0 | 0.0 | 0.00 | 0.00 | 0.00 | 86 | 1013.1 |
| 20260505034522 | 25 | 261 | 3.2 | 6.4 | 0.00 | 0.00 | 0.00 | 86 | 1013.3 |
| 20260505033106 | 25 | 298 | 0.0 | 0.0 | 0.00 | 0.00 | 0.00 | 86 | 1013.3 |
| 20260505031518 | 25 | 300 | 0.0 | 0.0 | 0.00 | 0.00 | 0.00 | 86 | 1013.5 |
| 20260505030126 | 25 | 300 | 0.0 | 0.0 | 0.00 | 0.00 | 0.00 | 86 | 1013.5 |
| 20260505024510 | 25 | 298 | 0.0 | 0.0 | 0.00 | 0.00 | 0.00 | 85 | 1013.5 |
| 20260505023056 | 25 | 297 | 0.0 | 0.0 | 0.00 | 0.00 | 0.00 | 85 | 1013.4 |
| 20260505021514 | 26 | 297 | 0.0 | 0.0 | 0.00 | 0.00 | 0.00 | 85 | 1013.2 |
| 20260505020108 | 26 | 295 | 0.0 | 0.0 | 0.00 | 0.00 | 0.00 | 85 | 1013.0 |
| 20260505014533 | 26 | 286 | 0.0 | 0.0 | 0.00 | 0.00 | 0.00 | 84 | 1013.0 |
| 20260505013107 | 26 | 286 | 0.0 | 0.0 | 0.00 | 0.00 | 0.00 | 84 | 1012.9 |
| 20260505011533 | 26 | 281 | 0.0 | 0.0 | 0.00 | 0.00 | 0.00 | 83 | 1012.8 |
| 20260505010105 | 27 | 276 | 0.0 | 0.0 | 0.00 | 0.00 | 0.00 | 82 | 1012.7 |
| 20260505004540 | 27 | 163 | 0.0 | 0.0 | 0.00 | 0.00 | 0.00 | 80 | 1012.7 |
| 20260505003119 | 28 | 163 | 0.0 | 3.2 | 0.00 | 0.00 | 0.00 | 79 | 1012.6 |
| 20260505001526 | 28 | 166 | 4.8 | 9.7 | 0.00 | 0.00 | 0.00 | 79 | 1012.3 |
| 20260505000109 | 28 | 174 | 4.8 | 8.0 | 0.00 | 0.00 | 0.00 | 79 | 1012.3 |
| 20260504234531 | 28 | 186 | 3.2 | 8.0 | 0.00 | 0.00 | 0.00 | 78 | 1012.3 |
| 20260504233120 | 28 | 171 | 0.0 | 8.0 | 0.00 | 0.00 | 0.00 | 78 | 1012.2 |
| 20260504231543 | 28 | 178 | 3.2 | 8.0 | 0.00 | 0.00 | 0.00 | 78 | 1012.0 |
| 20260504230133 | 28 | 158 | 1.6 | 6.4 | 0.00 | 0.00 | 0.00 | 77 | 1012.1 |
| 20260504223015 | 29 | 165 | 4.8 | 12.9 | 0.00 | 0.00 | 0.00 | 75 | 1011.8 |
| 20260504221605 | 29 | 163 | 4.8 | 12.9 | 0.00 | 0.00 | 0.00 | 75 | 1011.6 |
| 20260504220021 | 30 | 165 | 9.7 | 16.1 | 0.00 | 0.00 | 0.00 | 74 | 1011.5 |
| 20260504214613 | 30 | 172 | 8.0 | 17.7 | 0.00 | 0.00 | 0.00 | 73 | 1011.2 |
| 20260504213029 | 30 | 136 | 8.0 | 22.5 | 0.00 | 0.00 | 0.00 | 73 | 1011.0 |
| 20260504211653 | 30 | 138 | 11.3 | 16.1 | 0.00 | 0.00 | 0.00 | 72 | 1011.0 |
| 20260504210036 | 31 | 148 | 8.0 | 17.7 | 0.00 | 0.00 | 0.00 | 72 | 1011.0 |
| 20260504204619 | 31 | 148 | 12.9 | 17.7 | 0.00 | 0.00 | 0.00 | 72 | 1011.0 |
| 20260504203111 | 31 | 163 | 11.3 | 19.3 | 0.00 | 0.00 | 0.00 | 72 | 1011.0 |
| 20260504201517 | 30 | 183 | 11.3 | 19.3 | 0.00 | 0.00 | 0.00 | 72 | 1010.9 |
| 20260504200111 | 31 | 180 | 8.0 | 19.3 | 0.00 | 0.00 | 0.00 | 71 | 1010.9 |
| 20260504194537 | 30 | 144 | 6.4 | 19.3 | 0.00 | 0.03 | 0.00 | 72 | 1010.9 |
| 20260504191608 | 31 | 159 | 11.3 | 24.1 | 0.00 | 0.03 | 0.00 | 70 | 1011.1 |
| 20260504190014 | 31 | 148 | 12.9 | 19.3 | 0.00 | 0.03 | 0.00 | 69 | 1011.1 |
| 20260504184611 | 31 | 153 | 6.4 | 19.3 | 0.00 | 0.03 | 0.00 | 69 | 1011.2 |
| 20260504183031 | 31 | 153 | 14.5 | 22.5 | 0.00 | 0.03 | 0.00 | 68 | 1011.3 |
| 20260504181622 | 31 | 169 | 12.9 | 24.1 | 0.00 | 0.03 | 0.00 | 68 | 1011.4 |
| 20260504180040 | 31 | 150 | 12.9 | 19.3 | 0.00 | 0.03 | 0.00 | 67 | 1011.6 |
| 20260504174631 | 32 | 134 | 11.3 | 19.3 | 0.00 | 0.03 | 0.00 | 69 | 1011.9 |
| 20260504173051 | 31 | 148 | 12.9 | 22.5 | 0.00 | 0.03 | 0.00 | 69 | 1012.2 |
| 20260504171501 | 31 | 135 | 14.5 | 22.5 | 0.00 | 0.03 | 0.00 | 70 | 1012.3 |
| 20260504150114 | 32 | 355 | 6.4 | 17.7 | 0.00 | 0.03 | 0.00 | 55 | 1012.9 |
| 20260504140130 | 31 | 227 | 8.0 | 14.5 | 0.00 | 0.03 | 0.00 | 63 | 1013.0 |
| 20260504100109 | 22 | 273 | 1.6 | 12.9 | 0.00 | 0.03 | 0.00 | 84 | 1012.7 |
| 20260504081613 | 22 | 267 | 6.4 | 11.3 | 0.00 | 0.03 | 0.00 | 84 | 1012.1 |
| 20260504070120 | 23 | 261 | 3.2 | 8.0 | 0.00 | 0.03 | 0.00 | 81 | 1011.9 |